Change the Weather History Date:

Friday, July 19, 2013

  Actual Average Record
Temperature  
Mean Temperature 85 °F 75 °F  
Max Temperature 99 °F 89 °F 106 °F (1956)
Min Temperature 70 °F 61 °F 50 °F (1996)
Degree Days  
Heating Degree Days 0 0  
Month to date heating degree days 0 4  
Since 1 June heating degree days 58 64  
Since 1 July heating degree days 0 4  
Cooling Degree Days 20 10  
Month to date cooling degree days 253 162  
Year to date cooling degree days 422 309  
Since 1 June cooling degree days 365 272  
Growing Degree Days 34 (Base 50)    
Moisture  
Dew Point 41 °F    
Average Humidity 25    
Maximum Humidity 40    
Minimum Humidity 10    
Precipitation  
Precipitation 0.00 in 0.01 in 0.40 in (1972)
Month to date precipitation T 0.25  
Year to date precipitation 3.61 4.32  
Sea Level Pressure  
Sea Level Pressure 29.92 in    
Wind  
Wind Speed 8 mph (WNW)    
Max Wind Speed 17 mph    
Max Gust Speed 22 mph    
Visibility 10 miles    
Events      
T = Trace of Precipitation, MM = Missing Value Source: NWS Daily Summary

Daily Weather History Graph

Daily Weather History Graph

Search for Another Location

Airport or City:

Trip Planner

Search our weather history database for the weather conditions in past years. The results will help you decide how hot, cold, wet, or windy it might be!

Date:

Astronomy

Jul. 19, 2013 Rise Set
Actual Time 5:21 AM PDT 8:46 PM PDT
Civil Twilight 4:43 AM PDT 9:24 PM PDT
Nautical Twilight 3:53 AM PDT 10:13 PM PDT
Astronomical Twilight 2:48 AM PDT 11:18 PM PDT
Moon 5:53 PM PDT (7/19) 2:08 AM PDT (7/19)
Length of Visible Light 16h 40m
Length of Day
15h 25m
Waxing Gibbous, 87% of the Moon is Illuminated
Jul 19
Waxing Gibbous
Jul 22
Full
Jul 29
Last Quarter
Aug 6
New
Aug 14
First Quarter

Hourly Weather History & Observations

Time (PDT) Temp. Dew Point Humidity Pressure Visibility Wind Dir Wind Speed Gust Speed Precip Events Conditions
12:53 AM 79.0 °F 39.9 °F 25% 29.95 in 10.0 mi NNW 8.1 mph - N/A   Clear
1:53 AM 73.9 °F 46.0 °F 37% 29.96 in 10.0 mi NNW 6.9 mph - N/A   Clear
2:53 AM 75.0 °F 41.0 °F 29% 29.96 in 10.0 mi NNW 5.8 mph - N/A   Clear
3:53 AM 73.9 °F 44.1 °F 34% 29.96 in 10.0 mi NNW 8.1 mph - N/A   Clear
4:53 AM 71.1 °F 44.1 °F 38% 29.98 in 10.0 mi NNW 8.1 mph - N/A   Clear
5:53 AM 70.0 °F 44.1 °F 39% 29.99 in 10.0 mi NNW 8.1 mph - N/A   Clear
6:53 AM 73.9 °F 45.0 °F 35% 29.99 in 10.0 mi North 6.9 mph - N/A   Clear
7:53 AM 79.0 °F 44.1 °F 29% 30.00 in 10.0 mi NNW 11.5 mph - N/A   Clear
8:53 AM 82.0 °F 46.9 °F 29% 29.99 in 10.0 mi North 8.1 mph - N/A   Clear
9:53 AM 86.0 °F 46.9 °F 26% 29.99 in 10.0 mi NNE 3.5 mph - N/A   Clear
10:53 AM 88.0 °F 45.0 °F 22% 29.98 in 10.0 mi Variable 3.5 mph - N/A   Clear
11:53 AM 91.9 °F 46.0 °F 21% 29.96 in 10.0 mi Calm Calm - N/A   Clear
12:53 PM 93.9 °F 46.0 °F 19% 29.94 in 10.0 mi SW 10.4 mph - N/A   Clear
1:53 PM 96.1 °F 37.0 °F 13% 29.93 in 10.0 mi SW 9.2 mph 17.3 mph N/A   Clear
2:53 PM 98.1 °F 36.0 °F 11% 29.91 in 10.0 mi SW 13.8 mph 21.9 mph N/A   Clear
3:53 PM 99.0 °F 37.0 °F 12% 29.88 in 10.0 mi SSW 13.8 mph 19.6 mph N/A   Clear
4:53 PM 98.1 °F 32.0 °F 10% 29.86 in 10.0 mi SSW 12.7 mph 20.7 mph N/A   Clear
5:53 PM 98.1 °F 33.1 °F 10% 29.84 in 10.0 mi SW 16.1 mph - N/A   Clear
6:53 PM 96.1 °F 39.0 °F 14% 29.83 in 10.0 mi SSW 11.5 mph - N/A   Clear
7:53 PM 91.9 °F 44.1 °F 19% 29.83 in 10.0 mi WSW 8.1 mph - N/A   Clear
8:53 PM 84.9 °F 42.1 °F 22% 29.84 in 10.0 mi WNW 3.5 mph - N/A   Clear
9:53 PM 82.9 °F 35.1 °F 18% 29.86 in 10.0 mi WNW 6.9 mph - N/A   Clear
10:53 PM 82.0 °F 28.0 °F 14% 29.86 in 10.0 mi NNW 13.8 mph 18.4 mph N/A   Clear
11:53 PM 82.0 °F 34.0 °F 18% 29.85 in 10.0 mi WNW 8.1 mph - N/A   Clear